SCOUT A DEB, 2353

Orbit data source: Space-Track

SCOUT A DEB, 2353 is space debris in LEO originally from a launch on Sat, 26 Mar 1966 UTC launched from the Air Force Western Test Range (AFWTR). Debris objects in space refer to the collection of defunct objects orbiting the Earth. Examples of debris include non-operational satellites, rocket bodies, and fragments generated from explosions, collisions, or faulty payload assembly.

Loading next visibility...
SCOUT A DEB details
Identifier
2353, 1966-024C
Orbit
LEO
Last TLE update15 hours ago
Origin
Flag of USUSN BuWeps (US)
ManufacturerUnknown
MissionSpacecraft
Bus & MotorUnknown
MassUnknown
Launch date (UTC)
1966-03-26 (59 years ago)
Launch vehicleUnknown
Launch site
Air Force Western Test Range (AFWTR)
Object type
Payload
Rocket body
Debris
Shape & HBRUnknown
Radar Cross SectionSmall (<0.1 m²)

Expand to show TLE details & history

TLE from 15 hours ago
0 SCOUT A DEB
1 02353U 66024C   24355.90101857  .00000452  00000-0  41187-3 0  9996
2 02353  89.3798  48.8774 0149842 275.4068  83.0020 13.77146445940252
Epoch: 2024-12-20T21:37Z
Definitive object data (Epoch: 2024-12-20T21:37:28.004Z)
Latitude-0.00005°
Longitude-5.44917°
Altitude965.224 km
Speed7.375 km/s
True Right ascension03h 15m 30s
True Declination0° 00' 00"
Sunlit
Object was in full shadow at TLE epoch
Visualization TLE readout
Latitude-11.59912°
Longitude174.63682°
Altitude962.512 km
Speed7.378 km/s
Apparent Right ascension18h 05m 27s
Apparent Declination-42° 41' 18"
Sunlit
Object is in daylight
Visualization observer readout
Local Sidereal Time11:32:53
Azimuth121.918° SE
Elevation-30.99°
Doppler factor1
Orbital elements
Apogee altitude1,081.157 km
Perigee altitude860.914 km
Semi-major axis7,349.173 km
Eccentricity0.0149842
Inclination89.3798°
RAAN48.8774°
Arg. of periapsis275.4068°
True anomaly84.70992°
Mean anomaly83.002°
Eccentric anomaly83.8556°
Mean motion3.44497 °/min
BSTAR0.00041187
Orbital period104.5 mins
Loading maneuver chart data...
Loading historical data...
Loading historical data...
Loading historical data...
Loading historical data...
Loading historical data...
Loading historical data...
Loading historical data...

SCOUT A DEB Visibility forecast

Observer location: undefined°, undefined

Span
Click to sort rows by Start time (UTC) header in descending order
Start Az.
Max El. time (UTC)
Max El. Az.
Max El.
End time (UTC)
End Az.
12 mins2024-12-21 15:39:04.697Z9.903° NNE2024-12-21 15:45:04.697Z79.761° E40.249°2024-12-21 15:51:04.697Z165.581° S
7 mins2024-12-21 17:26:04.697Z320.999° NNW2024-12-21 17:29:04.697Z287.256° WNW20.988°2024-12-21 17:33:04.697Z243.789° WSW
10 mins2024-12-22 03:24:04.697Z138.09° SSE2024-12-22 03:28:04.697Z80.36° E33.176°2024-12-22 03:34:04.697Z13.391° NNE
9 mins2024-12-22 05:09:04.697Z230.284° WSW2024-12-22 05:13:04.697Z285.628° WNW27.285°2024-12-22 05:18:04.697Z337.334° NNW
|